This demonstration page uses our WeatherBlox Daily Observations layout. Learn more.

Left ArrowRight Arrow

Hourly Observations for June 12, 2021

Temp ( °F °C ) Dew Point ( °F °C ) Humidity (%) Winds ( mph kmh ) Pressure ( in mb ) Visibility ( mi km ) Precip ( " mm )
12:53 am 00:53 Clear 85 29.4 62 16.7 46 46 SSE 16 26 29.69 1005 10 16 0.00 0.00
1:53 am 01:53 Clear 83 28.3 61 16.1 48 48 SSE 14 22 29.68 1005 10 16 0.00 0.00
2:53 am 02:53 Clear 82 27.8 59 15 46 46 SE 15 24 29.68 1005 10 16 0.00 0.00
3:53 am 03:53 Clear 80 26.7 59 15 49 49 SE 12 19 29.69 1005 10 16 0.00 0.00
4:53 am 04:53 Clear 78 25.6 59 15 52 52 ESE 13 20 29.68 1005 10 16 0.00 0.00
5:53 am 05:53 Clear 78 25.6 60 15.6 54 54 SE 13 20 29.69 1005 10 16 0.00 0.00
6:53 am 06:53 Sunny 76 24.4 60 15.6 58 58 ESE 9 15 29.72 1006 10 16 0.00 0.00
7:53 am 07:53 Sunny 77 25 61 16.1 58 58 NE 3 6 29.76 1008 10 16 0.00 0.00
8:30 am 08:30 Mostly Sunny 78 25.6 61 16.1 56 56 E 3 6 29.78 1008 10 16 0.00 0.00
8:53 am 08:53 Sunny 79 26.1 61 16.1 54 54 E 5 7 29.79 1009 10 16 0.00 0.00
9:53 am 09:53 Sunny 82 27.8 61 16.1 49 49 E 5 7 29.81 1010 10 16 0.00 0.00
10:53 am 10:53 Sunny 87 30.6 61 16.1 42 42 ESE 7 11 29.82 1010 10 16 0.00 0.00
11:53 am 11:53 Sunny 90 32.2 61 16.1 38 38 ESE 13 20 29.83 1010 10 16 0.00 0.00
12:53 pm 12:53 Sunny 93 33.9 60 15.6 33 33 ESE 13 20 29.81 1009 10 16 0.00 0.00
1:53 pm 13:53 Sunny 97 36.1 59 15 28 28 SE 12 19 29.79 1009 10 16 0.00 0.00
2:53 pm 14:53 Sunny 102 38.9 54 12.2 20 20 SSE 10 17 29.75 1008 10 16 0.00 0.00
3:53 pm 15:53 Sunny 104 40 49 9.4 16 16 S 10 17 29.73 1007 10 16 0.00 0.00
4:53 pm 16:53 Sunny 105 40.6 47 8.3 14 14 SE 12 19 29.72 1006 10 16 0.00 0.00
5:53 pm 17:53 Sunny 104 40 46 7.8 14 14 SSE 23 37 29.71 1006 10 16 0.00 0.00
6:53 pm 18:53 Sunny 102 38.9 47 8.3 15 15 SE 21 33 29.71 1006 10 16 0.00 0.00
7:53 pm 19:53 Sunny 99 37.2 47 8.3 17 17 SE 17 28 29.71 1006 10 16 0.00 0.00
8:53 pm 20:53 Sunny 95 35 46 7.8 19 19 SE 16 26 29.75 1007 10 16 0.00 0.00
9:53 pm 21:53 Clear 93 33.9 47 8.3 21 21 SSE 16 26 29.78 1008 10 16 0.00 0.00
10:53 pm 22:53 Clear 89 31.7 48 8.9 24 24 SSE 15 24 29.79 1009 10 16 0.00 0.00
11:53 pm 23:53 Clear 87 30.6 52 11.1 30 30 SSE 14 22 29.81 1010 10 16 0.00 0.00

Powered by AerisWeather